Weather Service Report


581 
ASUS44 KBMX 142310
RWRAL 
             
ALABAMA REGIONAL WEATHER ROUNDUP
NATIONAL WEATHER SERVICE BIRMINGHAM AL
500 PM CST SUN FEB 14 2016

NOTE: "FAIR" INDICATES FEW OR NO CLOUDS BELOW 12,000 FEET
WITH NO SIGNIFICANT WEATHER AND/OR OBSTRUCTIONS TO VISIBILITY.

THE REMARK "TC" DENOTES TEMPERATURE IN DEGREES CELSIUS.

ALZ001>011-014-016>018-020-150000-
NORTH ALABAMA
  
CITY           SKY/WX    TMP DP  RH WIND       PRES   REMARKS
MUSCLE SHOALS  CLOUDY    48  17  29 S8        30.05S                  
HUNTSVILLE     CLOUDY    48  12  23 S10       30.07F                  
DECATUR        CLOUDY    46  16  30 SE7       30.08S                  
HALEYVILLE     CLOUDY    47  17  30 S7        30.07R                  
GADSDEN        CLOUDY    50  17  27 E6        30.13F                  
$$
 
ALZ012-013-022-023-030>036-040>044-150000-
WEST CENTRAL ALABAMA
  
CITY           SKY/WX    TMP DP  RH WIND       PRES   REMARKS
TUSCALOOSA     CLOUDY    56  22  26 S10       30.08F                  
$$
 
ALZ015-024>027-033>036-040>044-150000-
CENTRAL ALABAMA
  
CITY           SKY/WX    TMP DP  RH WIND       PRES   REMARKS
BIRMINGHAM     MOCLDY    55  15  20 S8        30.12S                  
MONTGOMERY     CLEAR     60  22  23 S7        30.15F                  
SHELBY CO ARPT CLEAR     56  19  23 S8        30.12S                  
MAXWELL AFB    CLEAR     59  22  24 S8        30.14S                  
GREENVILLE     FAIR      59  20  22 S6        30.16R                  
$$
 
ALZ019-021-028-029-037-038-045>048-150000-
EAST CENTRAL ALABAMA
  
CITY           SKY/WX    TMP DP  RH WIND       PRES   REMARKS
ANNISTON       CLEAR     54  16  22 SE7       30.13F                  
ALEXANDER CITY CLEAR     53  26  34 SE3       30.14S                  
AUBURN         CLEAR     54  20  26 SE9       30.17F                  
$$
 
ALZ051>064-150000-
SOUTHWEST ALABAMA
  
CITY           SKY/WX    TMP DP  RH WIND       PRES   REMARKS
MOBILE         MOCLDY    59  50  72 SE10      30.16R                  
BROOKLEY FIELD CLOUDY    58  50  75 E8        30.18R                  
EVERGREEN      CLEAR     59  26  28 SW10      30.18R                  
$$

ALZ049-050-065>069-150000-
SOUTHEAST ALABAMA
  
CITY           SKY/WX    TMP DP  RH WIND       PRES   REMARKS
DOTHAN         CLEAR     57  20  23 SE8       30.21F                  
OZARK          CLEAR     59  24  26 E3        30.18S                  
TROY           CLEAR     59  22  24 SE7       30.18R                  
EUFAULA        FAIR      58  23  26 S5        30.19R                  
$$
  

Return to Home page


Western Regional Climate Center, wrcc@dri.edu